Regional Weather Roundup
Issued by NWS Little Rock, AR

Home | Current Version | Previous Version | Graphics & Text | Print | Product List | Glossary On
Versions: 1 2 3 4 5 6 7 8 9 10 11 12 13 14 15 16 17 18 19 20 21 22 23 24 25 26 27 28 29 30 31 32 33 34 35 36 37 38 39 40 41 42 43 44 45 46 47 48 49 50
719
ASUS44 KLZK 022205
RWRLZK

WEATHER ROUNDUP FOR ARKANSAS
NATIONAL WEATHER SERVICE LITTLE ROCK AR
400 PM CST FRI DEC 02 2016

NOTE: "FAIR" INDICATES FEW OR NO CLOUDS BELOW 12,000 FEET WITH NO
SIGNIFICANT WEATHER AND/OR OBSTRUCTIONS TO VISIBILITY.

ARZ001-003-010-029-022300-
NORTHWEST ARKANSAS

CITY           SKY/WX    TMP DP  RH WIND       PRES   REMARKS
FAYETTEVILLE   MOCLDY    59  33  37 CALM      30.18S
FORT SMITH     CLOUDY    62  32  32 NE8       30.18S
HARRISON       PTCLDY    56  31  38 E6        30.22S
BENTONVILLE    CLOUDY    57  30  35 CALM      30.20S
ROGERS         CLOUDY    57  33  40 VRB5      30.20F
SILOAM SPGS    MOCLDY    57  32  38 S3        30.18R
HIGHFILL       PTCLDY    57  35  43 E5        30.18F
SPRINGDALE     PTCLDY    57  30  35 NE5       30.20S
$$

ARZ004-005-016-022300-
NORTH CENTRAL ARKANSAS

CITY           SKY/WX    TMP DP  RH WIND       PRES   REMARKS
BATESVILLE     PTCLDY    57  36  44 E9        30.25S
FLIPPIN        CLEAR     57  28  33 E5        30.20F
MTN HOME       PTCLDY    55  30  38 E5        30.23S
$$

ARZ040-041-022300-
WEST CENTRAL ARKANSAS

CITY           SKY/WX    TMP DP  RH WIND       PRES   REMARKS
MENA           CLOUDY    61  32  33 E3        30.17S
MOUNT IDA      PTSUNNY   59  33  37 E3        30.17S
$$

ARZ009-017-025-026-028-022300-
NORTHEAST ARKANSAS

CITY           SKY/WX    TMP DP  RH WIND       PRES   REMARKS
CORNING        FAIR      54  36  50 NE5       30.29S
JONESBORO      CLEAR     54  38  54 E6        30.27R
NEWPORT        PTCLDY    54  43  66 NE7       30.26S
WALNUT RIDGE   CLEAR     54  32  43 N3        30.27S
BLYTHEVILLE    CLEAR     54  38  54 N6        30.28S
NW BLYTHEVILLE PTCLDY    55  36  47 CALM      30.28R
$$

ARZ022-023-033-042-044-022300-
CENTRAL ARKANSAS

CITY           SKY/WX    TMP DP  RH WIND       PRES   REMARKS
LITTLE ROCK    MOCLDY    59  32  36 E8        30.23S
N LITTLE ROCK    N/A     60  32  35 E6        30.24S
JACKSONVILLE   PTCLDY    61  32  32 SE5       30.22S
SEARCY         PTCLDY    61  32  33 E5        30.25F
HOT SPRINGS    MOSUNNY   61  27  27 E7        30.20S
RUSSELLVILLE   PTCLDY    59  34  39 E3        30.20F
$$

ARZ036-022300-
EAST ARKANSAS

CITY           SKY/WX    TMP DP  RH WIND       PRES   REMARKS
WEST MEMPHIS   PTCLDY    58  34  40 N5        30.26R
$$

ARZ050-053-066-070-073-022300-
SOUTHWEST ARKANSAS

CITY           SKY/WX    TMP DP  RH WIND       PRES   REMARKS
ARKADELPHIA    FAIR      59  41  51 CALM      30.21S
CAMDEN         CLOUDY    61  28  29 CALM      30.20F
TEXARKANA      MOSUNNY   61  31  32 E6        30.18R
EL DORADO      CLOUDY    61  34  36 E6        30.19F
DE QUEEN       CLOUDY    60  35  39 E8        30.17R
$$

ARZ056-057-069-022300-
SOUTHEAST ARKANSAS

CITY           SKY/WX    TMP DP  RH WIND       PRES   REMARKS
PINE BLUFF     CLOUDY    57  42  57 E6        30.24R
STUTTGART      PTCLDY    59  34  38 N3        30.25S
MONTICELLO     PTCLDY    60  33  36 E3        30.22R

$$






USA.gov is the U.S. government's official web portal to all federal, state and local government web resources and services.